Beckley, WV

4:14 PM EDT on September 21, 2017 (GMT -0400)
Raleigh County Memorial

Weather History for KBKW - November, 2011

Change the Weather History Date:

Tuesday, November 15, 2011

  Actual Average Record
Temperature  
Mean Temperature 57 °F 44 °F  
Max Temperature 64 °F 53 °F 78 °F (1918)
Min Temperature 50 °F 35 °F 9 °F (1969)
Degree Days  
Heating Degree Days 8 21  
Month to date heating degree days 234 276  
Since 1 July heating degree days 714 782  
Cooling Degree Days 0 0  
Month to date cooling degree days 0 0  
Year to date cooling degree days 865 556  
Growing Degree Days 7 (Base 50)    
Moisture  
Dew Point 51 °F    
Average Humidity 82    
Maximum Humidity 96    
Minimum Humidity 67    
Precipitation  
Precipitation 0.51 in 0.10 in 1.41 in (1924)
Month to date precipitation 0.66 1.44  
Year to date precipitation 35.02 36.68  
Snow  
Snow 0.00 in - - ()
Month to date snowfall T  
Since 1 September snowfall 1.2  
Snow Depth 0.00 in    
Sea Level Pressure  
Sea Level Pressure 29.95 in    
Wind  
Wind Speed 7 mph (NNE)    
Max Wind Speed 18 mph    
Max Gust Speed 24 mph    
Visibility 7 miles    
Events Rain    
T = Trace of Precipitation, MM = Missing Value Source: NWS Daily Summary

Daily Weather History Graph

Daily Weather History Graph

Search for Another Location

Airport or City:

Trip Planner

Search our weather history database for the weather conditions in past years. The results will help you decide how hot, cold, wet, or windy it might be!

Date:

Astronomy

Nov. 15, 2011 Rise Set
Actual Time 7:04 AM EST 5:13 PM EST
Civil Twilight 6:36 AM EST 5:41 PM EST
Nautical Twilight 6:04 AM EST 6:12 PM EST
Astronomical Twilight 5:33 AM EST 6:44 PM EST
Moon 9:21 PM EST (11/15) 11:02 AM EST (11/15)
Length of Visible Light 11h 04m
Length of Day
10h 08m
Waning Gibbous, 79% of the Moon is Illuminated
Nov 15
Waning Gibbous
Nov 18
Last Quarter
Nov 25
New
Dec 2
First Quarter
Dec 10
Full

Hourly Weather History & Observations

Time (EST) Temp. Dew Point Humidity Pressure Visibility Wind Dir Wind Speed Gust Speed Precip Events Conditions
12:51 AM 64.0 °F 54.0 °F 70% 29.84 in 10.0 mi WSW 18.4 mph 24.2 mph N/A   Scattered Clouds
1:51 AM 63.0 °F 54.0 °F 72% 29.84 in 10.0 mi SW 12.7 mph - N/A   Scattered Clouds
2:51 AM 63.0 °F 54.0 °F 72% 29.84 in 10.0 mi SW 13.8 mph - N/A   Overcast
3:51 AM 64.0 °F 54.0 °F 70% 29.82 in 10.0 mi WSW 10.4 mph 18.4 mph N/A   Overcast
4:51 AM 63.0 °F 53.1 °F 70% 29.82 in 10.0 mi SW 9.2 mph - N/A   Mostly Cloudy
5:51 AM 62.1 °F 53.1 °F 72% 29.83 in 10.0 mi WSW 5.8 mph - N/A   Mostly Cloudy
6:18 AM 57.2 °F 53.6 °F 88% 29.91 in 10.0 mi North 12.7 mph - 0.00 in Rain Light Rain
6:51 AM 55.9 °F 54.0 °F 93% 29.88 in 7.0 mi North 8.1 mph - 0.02 in Rain Light Rain
7:06 AM 55.4 °F 53.6 °F 94% 29.93 in 10.0 mi North 5.8 mph - 0.00 in Rain Light Rain
7:51 AM 55.4 °F 53.6 °F 94% 29.94 in 8.0 mi Calm Calm - N/A Rain Light Rain
8:34 AM 55.4 °F 53.6 °F 94% 29.96 in 2.5 mi Calm Calm - 0.03 in Rain Light Rain
8:41 AM 55.4 °F 53.6 °F 94% 29.96 in 3.0 mi Calm Calm - 0.04 in Rain Light Rain
8:51 AM 55.0 °F 54.0 °F 96% 29.92 in 3.0 mi North 3.5 mph - 0.04 in Rain Light Rain
9:02 AM 53.6 °F 51.8 °F 94% 29.97 in 2.5 mi North 9.2 mph 21.9 mph 0.01 in Rain Light Rain
9:09 AM 51.8 °F 50.0 °F 94% 29.98 in 4.0 mi North 11.5 mph 19.6 mph 0.02 in Rain Light Rain
9:20 AM 51.8 °F 48.2 °F 88% 29.99 in 2.5 mi North 11.5 mph - 0.04 in Rain Rain
9:36 AM 51.8 °F 48.2 °F 88% 29.99 in 2.0 mi North 8.1 mph - 0.08 in Rain Rain
9:51 AM 51.1 °F 48.9 °F 92% 29.97 in 2.5 mi NNW 6.9 mph - 0.11 in Rain Light Rain
9:58 AM 50.0 °F 48.2 °F 94% 30.00 in 3.0 mi North 4.6 mph - 0.00 in Rain Light Rain
10:06 AM 51.8 °F 48.2 °F 88% 30.01 in 2.5 mi NNW 4.6 mph - 0.01 in Rain Light Rain
10:34 AM 51.8 °F 50.0 °F 94% 30.02 in 4.0 mi NNW 5.8 mph - 0.04 in Rain Light Rain
10:51 AM 51.1 °F 50.0 °F 96% 29.99 in 8.0 mi North 5.8 mph - 0.04 in Rain Light Rain
11:51 AM 52.0 °F 50.0 °F 93% 29.97 in 9.0 mi North 3.5 mph - 0.00 in Rain Light Rain
12:29 PM 51.8 °F 50.0 °F 94% 29.99 in 5.0 mi Variable 3.5 mph - 0.01 in Rain Light Rain
12:51 PM 52.0 °F 48.9 °F 89% 29.95 in 4.0 mi Calm Calm - 0.01 in Rain Light Rain
1:31 PM 51.8 °F 50.0 °F 94% 29.98 in 5.0 mi Calm Calm - 0.01 in Rain Light Rain
1:37 PM 51.8 °F 50.0 °F 94% 29.98 in 6.0 mi Calm Calm - 0.01 in Rain Light Rain
1:45 PM 51.8 °F 50.0 °F 94% 29.97 in 9.0 mi East 4.6 mph - 0.01 in   Mostly Cloudy
1:51 PM 52.0 °F 50.0 °F 93% 29.93 in 10.0 mi ESE 4.6 mph - 0.01 in   Mostly Cloudy
2:51 PM 53.1 °F 50.0 °F 89% 29.92 in 10.0 mi Calm Calm - N/A   Overcast
2:59 PM 53.6 °F 50.0 °F 88% 29.98 in 10.0 mi Calm Calm - N/A   Overcast
3:16 PM 53.6 °F 51.8 °F 94% 29.98 in 4.0 mi North 5.8 mph - 0.00 in Rain Light Rain
3:51 PM 52.0 °F 51.1 °F 97% 29.95 in 4.0 mi Calm Calm - 0.02 in Rain Light Rain
4:04 PM 51.8 °F 51.8 °F 100% 29.98 in 3.0 mi Calm Calm - 0.00 in Rain Light Rain
4:14 PM 51.8 °F 51.8 °F 100% 29.98 in 6.0 mi Calm Calm - 0.00 in   Overcast
4:22 PM 51.8 °F 51.8 °F 100% 29.97 in 10.0 mi ENE 3.5 mph - 0.00 in   Overcast
4:31 PM 51.8 °F 51.8 °F 100% 29.98 in 10.0 mi East 4.6 mph - 0.00 in   Overcast
4:41 PM 51.8 °F 51.8 °F 100% 29.98 in 10.0 mi Calm Calm - 0.00 in   Overcast
4:51 PM 52.0 °F 51.1 °F 97% 29.94 in 10.0 mi Calm Calm - 0.00 in   Overcast
5:24 PM 51.8 °F 51.8 °F 100% 29.98 in 10.0 mi East 4.6 mph - 0.00 in   Overcast
5:47 PM 51.8 °F 51.8 °F 100% 29.99 in 10.0 mi SSE 3.5 mph - 0.00 in Rain Light Rain
5:51 PM 52.0 °F 50.0 °F 93% 29.95 in 8.0 mi SE 5.8 mph - 0.00 in Rain Light Rain
6:51 PM 52.0 °F 50.0 °F 93% 29.96 in 5.0 mi ESE 6.9 mph - 0.03 in Rain Light Rain
7:31 PM 51.8 °F 50.0 °F 94% 29.98 in 5.0 mi ESE 5.8 mph - 0.09 in Rain Rain
7:51 PM 52.0 °F 50.0 °F 93% 29.96 in 5.0 mi Calm Calm - 0.11 in Rain Light Rain
8:43 PM 51.8 °F 51.8 °F 100% 29.97 in 4.0 mi Calm Calm - 0.04 in Rain Light Rain
8:51 PM 52.0 °F 51.1 °F 97% 29.95 in 5.0 mi Calm Calm - 0.04 in Rain Light Rain
9:20 PM 51.8 °F 50.0 °F 94% 29.98 in 5.0 mi Calm Calm - 0.02 in Rain Light Rain
9:51 PM 52.0 °F 50.0 °F 93% 29.95 in 5.0 mi Calm Calm - 0.06 in Rain Light Rain
10:51 PM 53.1 °F 51.1 °F 93% 29.93 in 7.0 mi ESE 6.9 mph - 0.01 in Rain Light Rain
11:07 PM 53.6 °F 51.8 °F 94% 29.95 in 10.0 mi North 3.5 mph - 0.00 in   Overcast
11:38 PM 53.6 °F 51.8 °F 94% 29.95 in 10.0 mi SSE 4.6 mph - 0.00 in   Overcast
11:51 PM 54.0 °F 52.0 °F 93% 29.93 in 10.0 mi SSE 5.8 mph - 0.00 in   Overcast